Regional Weather Roundup
Issued by NWS

Home | Current Version | Previous Version | Graphics & Text | Print | Product List | Glossary On
Versions: 1 2 3 4 5 6 7 8 9 10 11 12 13 14 15 16 17 18 19 20 21 22 23 24 25 26 27 28 29 30 31 32 33 34 35 36 37 38 39 40 41 42 43 44 45 46 47 48 49 50
000
ASUS43 KLSX 250410
RWRMO

WEATHER SUMMARY FOR MISSOURI
NATIONAL WEATHER SERVICE SPRINGFIELD MO
1000 PM CST FRI FEB 24 2017

NOTE: "FAIR" INDICATES FEW OR NO CLOUDS BELOW 12,000 FEET WITH NO
       SIGNIFICANT WEATHER AND/OR OBSTRUCTIONS TO VISIBILITY.
       CURRENT SKY AND/OR WEATHER CONDITIONS ARE NOT AVAILABLE FOR
       CHILLICOTHE AND FARMINGTON.

MOZ001>031-035>038-043-044-053-054-250500-
...NORTHERN AND WESTERN MISSOURI...

CITY           SKY/WX    TMP DP  RH WIND       PRES   REMARKS
KANSAS CTY INT MOCLDY    24  20  84 NW10      30.03R WCI  14
KANSAS C DTWN  CLOUDY    27  19  72 NW15G21   30.05R WCI  15
LEE`S SUMMIT   FLURRIES  27  18  69 NW14G24   30.03R WCI  16
ST JOSEPH      CLEAR     23  20  88 W10       30.04R WCI  12
CHILLICOTHE      N/A     26  20  77 NW13G21   29.98R WCI  15
KIRKSVILLE     LGT SNOW  25  21  85 W16G24    29.88R FOG     WCI  12

$$
MOZ066>068-077>081-088>096-101>105-250500-
...SOUTHWEST MISSOURI...

CITY           SKY/WX    TMP DP  RH WIND       PRES   REMARKS
SPRINGFIELD    CLOUDY    33  20  58 NW17G24   29.98R WCI  22
JOPLIN         CLOUDY    32  21  64 NW16G25   30.07R WCI  21
BRANSON        CLOUDY    34  19  55 W15G25    30.00R WCI  24

$$
MOZ032>034-039>042-045>050-055>058-069>072-250500-
...CENTRAL MISSOURI...

CITY           SKY/WX    TMP DP  RH WIND       PRES   REMARKS
COLUMBIA       CLOUDY    30  21  69 NW23G30   29.91R WCI  17
JEFFERSON CITY CLOUDY    32  20  61 W26G32    29.94R WCI  18
ROLLA          CLOUDY    32  21  64 W22G33    29.89R WCI  19
SEDALIA        CLOUDY    30  18  60 NW22G31   29.99R WCI  17
WHITEMAN AFB   CLOUDY    29  19  65 NW20G28   29.99R WCI  16
WARRENSBURG    CLOUDY    30  21  69 W16G23    30.02R WCI  19
OSAGE BEACH    CLOUDY    33  20  58 W16G24    29.96R WCI  23

$$
MOZ051-052-059>065-250500-
...EAST CENTRAL MISSOURI...

CITY           SKY/WX    TMP DP  RH WIND       PRES   REMARKS
ST LOUIS INTL  MOCLDY    40  25  55 NW23G37   29.81R WCI  30
SPIRIT OF STL  CLOUDY    38  25  59 W21G36    29.83R WCI  28
ST CHARLES     CLOUDY    37  27  67 W26G38    29.81R WCI  25

$$
MOZ072>076-082>087-097>100-106>115-250500-
...SOUTH CENTRAL AND SOUTHEAST MISSOURI...

CITY           SKY/WX    TMP DP  RH WIND       PRES   REMARKS
CAPE GIRARDEAU CLEAR     47  31  53 NW13      29.79R
FARMINGTON     MOCLDY    42  27  55 W13G18    29.82R
POPLAR BLUFF   CLEAR     48  30  49 W14G24    29.83R
WEST PLAINS    PTCLDY    38  25  59 W15       29.91R WCI  29

$$




USA.gov is the U.S. government's official web portal to all federal, state and local government web resources and services.